Regional Weather Roundup
Issued by NWS

Home | Current Version | Previous Version | Graphics & Text | Print | Product List | Glossary On
Versions: 1 2 3 4 5 6 7 8 9 10 11 12 13 14 15 16 17 18 19 20 21 22 23 24 25 26 27 28 29 30 31 32 33 34 35 36 37 38 39 40 41 42 43 44 45 46 47 48 49 50
000
ASUS43 KLSX 270407
RWRMO

WEATHER SUMMARY FOR MISSOURI
NATIONAL WEATHER SERVICE SPRINGFIELD MO
1100 PM CDT WED JUL 26 2017

NOTE: "FAIR" INDICATES FEW OR NO CLOUDS BELOW 12,000 FEET WITH NO
       SIGNIFICANT WEATHER AND/OR OBSTRUCTIONS TO VISIBILITY.
       CURRENT SKY AND/OR WEATHER CONDITIONS ARE NOT AVAILABLE FOR
       CHILLICOTHE AND FARMINGTON.

MOZ001>031-035>038-043-044-053-054-270500-
...NORTHERN AND WESTERN MISSOURI...

CITY           SKY/WX    TMP DP  RH WIND       PRES   REMARKS
KANSAS CTY INT TSTM      73  72  96 SE7       29.96F FOG
KANSAS C DTWN  TSTM      74  74 100 E10       29.97R FOG
LEE`S SUMMIT   TSTM      75  75 100 N17G25    30.00R
ST JOSEPH      CLOUDY    78  76  93 CALM      29.98R
CHILLICOTHE      N/A     78  78 100 CALM      29.98F
KIRKSVILLE     CLOUDY    76  74  93 CALM      29.98S

$$
MOZ066>068-077>081-088>096-101>105-270500-
...SOUTHWEST MISSOURI...

CITY           SKY/WX    TMP DP  RH WIND       PRES   REMARKS
SPRINGFIELD    CLOUDY    82  72  71 S8        30.01R
JOPLIN         CLOUDY    86  73  65 S10       29.99R HX  93
BRANSON        MOCLDY    81  72  74 CALM      30.04S

$$
MOZ032>034-039>042-045>050-055>058-069>072-270500-
...CENTRAL MISSOURI...

CITY           SKY/WX    TMP DP  RH WIND       PRES   REMARKS
COLUMBIA       CLOUDY    82  78  88 CALM      29.96S HX  91
JEFFERSON CITY PTCLDY    83  79  88 NW3       29.94S HX  94
ROLLA          CLOUDY    83  72  69 S8        30.00R
SEDALIA        CLOUDY    80  80 100 E3        29.99F
WHITEMAN AFB   LGT RAIN  78  78 100 S6        29.95F
WARRENSBURG    LGT RAIN  77  73  88 CALM      29.95S
OSAGE BEACH    CLOUDY    85  73  67 CALM      29.98R HX  91

$$
MOZ051-052-059>065-270500-
...EAST CENTRAL MISSOURI...

CITY           SKY/WX    TMP DP  RH WIND       PRES   REMARKS
ST LOUIS INTL  TSTM      81  75  82 E3        29.96S
SPIRIT OF STL  CLOUDY    82  75  79 E5        29.94S
ST CHARLES     CLOUDY    79  72  79 SE6       29.94F

$$
MOZ072>076-082>087-097>100-106>115-270500-
...SOUTH CENTRAL AND SOUTHEAST MISSOURI...

CITY           SKY/WX    TMP DP  RH WIND       PRES   REMARKS
CAPE GIRARDEAU CLOUDY    83  73  72 SW10      29.97F
FARMINGTON     PTCLDY    80  73  79 S3        30.00F
POPLAR BLUFF   PTCLDY    80  76  87 S5        29.98F
WEST PLAINS    MOCLDY    81  72  74 SW6       30.04S

$$




USA.gov is the U.S. government's official web portal to all federal, state and local government web resources and services.